This is the latest recevied weather packets stored in our database for station/object AD7ZD. If no packets are shown the sender has not sent any weather packets the latest 10 day(s).
| Time | Temp. | Humidity | Pressure | Rain* | Wind** | Luminosity | Snow |
|---|---|---|---|---|---|---|---|
| 1777552668 | 3.33° C | 48% | 1015.9 hPa | 0 mm | - | 0 W/m² | - |
| 1777552366 | 3.33° C | 49% | 1015.8 hPa | 0 mm | - | 0 W/m² | - |
| 1777552062 | 3.89° C | 47% | 1015.9 hPa | 0 mm | - | 0 W/m² | - |
| 1777551759 | 3.89° C | 47% | 1015.9 hPa | 0 mm | - | 0 W/m² | - |
| 1777551456 | 4.44° C | 45% | 1015.4 hPa | 0 mm | - | 0 W/m² | - |
| 1777551153 | 4.44° C | 48% | 1015.7 hPa | 0 mm | - | 0 W/m² | - |
| 1777550851 | 3.33° C | 51% | 1015.7 hPa | 0 mm | - | 0 W/m² | - |
| 1777550547 | 2.78° C | 51% | 1015.7 hPa | 0 mm | - | 0 W/m² | - |
| 1777550243 | 2.78° C | 47% | 1015.7 hPa | 0 mm | - | 0 W/m² | - |
| 1777549940 | 3.33° C | 46% | 1015.7 hPa | 0 mm | - | 0 W/m² | - |
| 1777549636 | 3.89° C | 43% | 1015.7 hPa | 0 mm | - | 0 W/m² | - |
| 1777549331 | 3.89° C | 42% | 1015.5 hPa | 0 mm | - | 0 W/m² | - |
| 1777549029 | 5° C | 41% | 1015.4 hPa | 0 mm | - | 0 W/m² | - |
| 1777548725 | 5.56° C | 42% | 1015.5 hPa | 0 mm | - | 0 W/m² | - |
| 1777548422 | 4.44° C | 43% | 1015.5 hPa | 0 mm | - | 0 W/m² | - |
| 1777548119 | 3.89° C | 47% | 1015.8 hPa | 0 mm | - | 0 W/m² | - |
| 1777547814 | 3.33° C | 45% | 1015.4 hPa | 0 mm | - | 0 W/m² | - |
| 1777547511 | 3.33° C | 45% | 1015.3 hPa | 0 mm | - | 0 W/m² | - |
| 1777547209 | 3.89° C | 49% | 1015.5 hPa | 0 mm | - | 0 W/m² | - |
| 1777546906 | 3.89° C | 48% | 1015.5 hPa | 0 mm | - | 0 W/m² | - |
| 1777546603 | 3.89° C | 54% | 1015.8 hPa | 0 mm | - | 0 W/m² | - |
| 1777546299 | 3.89° C | 52% | 1015.5 hPa | 0 mm | - | 0 W/m² | - |
| 1777545997 | 3.89° C | 53% | 1015.4 hPa | 0 mm | - | 0 W/m² | - |
| 1777545692 | 4.44° C | 52% | 1015.4 hPa | 0 mm | - | 0 W/m² | - |
| 1777545390 | 4.44° C | 52% | 1015.4 hPa | 0 mm | - | 0 W/m² | - |
* Rain latest hour (hover to see other rain measurements)
** Current wind speed in m/s (hover to see current wind gust speed)